Volver al catálogo

YAOGAN-43 O1J

ActivoMilitarVLEO
NORAD 60466·PAYLOAD·🇨🇳 China

Lanzado Aug 16, 2024 desde Xichang Satellite Launch Center

Loading…

Próximos Pases (próximas 24 horas)

TLE

ActualizadoSource: Space-Track

Época: Sep 14, 2026, 12:35 UTC

1 60466U 24148J   26257.52487839  .00010993  00000-0  28230-3 0  9999
2 60466  34.9909 279.3012 0005959 355.8890   4.1779 15.38469791116197

Sigue YAOGAN-43 O1J en tiempo real con AllMySat

Download on the App Store